Regional Weather Roundup
Issued by NWS

Home | Current Version | Previous Version | Graphics & Text | Print | Product List | Glossary On
Versions: 1 2 3 4 5 6 7 8 9 10 11 12 13 14 15 16 17 18 19 20 21 22 23 24 25 26 27 28 29 30 31 32 33 34 35 36 37 38 39 40 41 42 43 44 45 46 47 48 49 50
000
ASUS43 KMKX 200820
RWRWI

WISCONSIN REGIONAL WEATHER ROUNDUP
NATIONAL WEATHER SERVICE MILWAUKEE/SULLIVAN WI
200 AM CST FRI JAN 20 2017

NOTE: "FAIR" INDICATES FEW OR NO CLOUDS BELOW 12,000 FEET WITH NO
SIGNIFICANT WEATHER AND/OR OBSTRUCTIONS TO VISIBILITY.

WIZ001-002-006>008-014>016-023>028-200900-
NORTHWEST WISCONSIN

CITY           SKY/WX    TMP DP  RH WIND       PRES   REMARKS
SUPERIOR ARPT  FOG       32  32 100 CALM      29.69S VSB 1
ASHLAND        MOCLDY    32  28  85 CALM      29.72S
HAYWARD        CLOUDY    35  30  82 SE7       29.70S WCI  29
SIREN          DRIZZLE   35  32  88 CALM      29.68S
CUMBERLAND     CLOUDY    34  32  93 SE7       29.68S FOG     WCI  28
RICE LAKE      CLOUDY    35  33  92 E6        29.70S FOG     WCI  30
CHETEK         NOT AVBL
LADYSMITH      LGT RAIN  35  32  92 E7        29.72F WCI  29
EAU CLAIRE     LGT RAIN  35  34  96 NE6       29.68F FOG     WCI  30
MENOMONIE        N/A    N/A N/A N/A MISG        N/A
NEW RICHMOND   CLOUDY    35  35 100 E7        29.67S FOG     WCI  29
OSCEOLA        LGT RAIN  35  35 100 E7        29.69F WCI  30
$$

WIZ003>005-009-010-017-018-200900-
NORTH CENTRAL WISCONSIN

CITY           SKY/WX    TMP DP  RH WIND       PRES   REMARKS
MANITOWISH WTR FOG       27  27 100 CALM      29.72S VSB 1
ARBOR VITAE    FOG       29  28  96 CALM      29.72F VSB 1
WOODRUFF       FOG       29  28  96 CALM      29.72F VSB 1
RHINELANDER    CLOUDY    27  26  96 E5        29.73S FOG     WCI  22
EAGLE RIVER    CLOUDY    25  25 100 CALM      29.72F FOG
LAND O LAKES   CLOUDY    24  23  96 CALM      29.74F FOG
PHILLIPS       CLOUDY    31  30  96 CALM      29.70F
TOMAHAWK       CLOUDY    30  29  97 CALM      29.72F FOG
MEDFORD        MIX PCPN  32  31  97 E3        29.69F
MERRILL        CLOUDY    31  31 100 CALM        N/A  FOG
$$

WIZ029-030-035-036-043>047-200900-
CENTRAL WISCONSIN

CITY           SKY/WX    TMP DP  RH WIND       PRES   REMARKS
WAUSAU         CLOUDY    31  31 100 E6        29.71F FOG     WCI  25
MOSINEE        MIX PCPN  32  32 100 E3        29.72F
MARSHFIELD     MIX PCPN  32  31  96 E7        29.68F FOG     WCI  26
STEVENS POINT  MIX PCPN  31  31 100 E6        29.73F WCI  25
WAUPACA        DRIZZLE   33  32  95 CALM      29.75F
WAUTOMA        LGT RAIN  34  32  93 E5        29.72F FOG     WCI  30
WISC RAPIDS    LGT RAIN  33  33 100 E6        29.72F FOG     WCI  28
CAMP DOUGLAS   CLOUDY    32  32 100 E5        29.69S WCI  27
$$

WIZ011>013-019>022-031-037>040-048>050-200900-
NORTHEAST WISCONSIN

CITY           SKY/WX    TMP DP  RH WIND       PRES   REMARKS
ANTIGO         CLOUDY    30  30 100 CALM      29.73F FOG
SHAWANO        FOG       33  32  96 NE5       29.77S VSB 1/2 WCI  28
OCONTO         NOT AVBL
STURGEON BAY   FOG       33  32  96 NE3       29.78F VSB 1/4
GREEN BAY      FOG       34  34 100 NE6       29.76F VSB 1/4 WCI  29
MANITOWOC      FOG       34  34 100 CALM      29.76S VSB 1/4
APPLETON       DRIZZLE   32  32 100 NE6       29.73F WCI  26
CLINTONVILLE   FOG       32  32 100 NE3       29.75F VSB 1/2
OSHKOSH        LGT RAIN  33  32  96 NE5       29.73F VSB 1/2 WCI  29
$$

WIZ032>034-041-042-053>061-200900-
SOUTHWEST WISCONSIN

CITY           SKY/WX    TMP DP  RH WIND       PRES   REMARKS
LA CROSSE      FOG       37  34  89 CALM      29.68S VSB 1/2
SPARTA         CLOUDY    34  34  99 E5        29.70S WCI  30
VIROQUA        CLOUDY    34  34 100 E7        29.66S VSB 1   WCI  28
BOSCOBEL       FOG       37  35  92 NE3       29.68R VSB 1
PRAIRIE DU CHI FOG       35  34  96 CALM      29.67S VSB 1/2
PLATTEVILLE    CLOUDY    35  35 100 E7        29.65S VSB 1   WCI  29
$$

WIZ056-057-062-063-064-067-068-200900-
SOUTH CENTRAL WISCONSIN

CITY           SKY/WX    TMP DP  RH WIND       PRES   REMARKS
REEDSBURG      NOT AVBL
BARABOO/DELLS  FOG       34  33  98 NE7       29.68F VSB 1   WCI  28
LONE ROCK      CLOUDY    36  35  96 E7        29.68S FOG     WCI  30
MINERAL POINT  FOG       36  36 100 E6        29.65R VSB 3/4 WCI  31
MADISON        CLOUDY    35  34  96 E10       29.69S WCI  27
MIDDLETON      CLOUDY    36  36 100 E7        29.68S WCI  31
WATERTOWN      DRIZZLE   35  35 100 NE7       29.69F WCI  29
MONROE         CLOUDY    34  34 100 NE7       29.64S FOG     WCI  28
JANESVILLE     CLOUDY    36  36 100 NE8       29.66S WCI  29
$$

WIZ051-052-058>065-066-070>072-200900-
SOUTHEAST WISCONSIN

CITY           SKY/WX    TMP DP  RH WIND       PRES   REMARKS
MILWAUKEE      LGT RAIN  38  36  92 E7        29.71F FOG     WCI  33
WAUKESHA       LGT RAIN  34  34 100 NE7       29.71F WCI  28
MILWAUKEE/TIMM RAIN      36  34  93 NE5       29.72F WCI  32
RACINE         LGT RAIN  38  36  92 NE12      29.72F FOG     WCI  30
KENOSHA        LGT RAIN  37  36  96 E13       29.69F FOG     WCI  29
FOND DU LAC    LGT RAIN  34  31  88 NE5       29.73F VSB 1/2 WCI  30
SHEBOYGAN      LGT RAIN  33  32  96 NE5       29.75S VSB 1/2 WCI  29
WEST BEND      RAIN      34  34 100 NE7       29.72F WCI  28
JUNEAU         RAIN      34  33  98 NE5       29.72F WCI  30
$$

LSZ147-162-200900-
LAKE SUPERIOR

STATION/POSITION TIME  TEMP    WIND        PRES    WAVE
                       AIR SEA DIR/SP/G            HT/PER
                 (UTC) (F)     (DEG/KT/KT) (MB)    (FT/S)
DEVILS ISLAND    0800   38     190/  6/  8 1006.5R
PORT WING        0740   34      CALM  /  2 1005.8S
SAXON HARBOR     0740   36     180/  5/  8 1006.1F
$$

LMZ867-665-643>646-200900-
LAKE MICHIGAN

STATION/POSITION TIME  TEMP    WIND        PRES    WAVE
                       AIR SEA DIR/SP/G            HT/PER
                 (UTC) (F)     (DEG/KT/KT) (MB)    (FT/S)
NORTHPORT PIER   0740   33        CALM     1009.1S
SISTER BAY       0750   33        CALM       N/A
ALGOMA LAKESHORE 0624             CALM       N/A
KEWAUNEE LAKESHO 0800   33      CALM  /  1 1007.5
SHEBOYGAN LAKESH 0800   35      20/  7/  7 1007.8F
PORT WASHINGTON  0740   36      30/  7/  9 1008.1F
MILWAUKEE LAKESH 0800   36      60/  7/  7   N/A
KENOSHA   LAKESH 0800   36      60/ 13/ 15 1006.1
$$

TC  - TEMPERATURE IN CELSIUS
VSB - VISIBILITY IN STATUTE MILES
WCI - WIND CHILL INDEX
HX  - HEAT INDEX





USA.gov is the U.S. government's official web portal to all federal, state and local government web resources and services.